Torna al catalogo

CZ-6A DEB

AttivoPO
NORAD 54638·DEBRIS·🇨🇳 China

Lanciato Nov 11, 2022 da Taiyuan Satellite Launch Center

Loading…

Prossimi Passaggi (prossime 24 ore)

TLE

AggiornatoSource: Space-Track

Epoca: Sep 14, 2026, 05:30 UTC

1 54638U 22151PQ  26257.22961206  .00014334  00000-0  14436-2 0  9992
2 54638  98.6281 345.1507 0050430 315.5444  44.1729 14.90336861203895

Traccia CZ-6A DEB in tempo reale con AllMySat

Download on the App Store